When you browse on this site, cookies collect data to enhance your experience and personalize the content and advertising you see.
Visit our Privacy Policy to learn more. By continuing to use the site, you agree to this use of cookies and data.
  • In Hungary
  • List of Countries
  • For 7 days
  • Water Temperature
  • Satellite Maps
  • Weather Map
  • News
  • Weather Widgets
  • user-avatar
    Login

    Hourly Weather Zdzieszowice

    Today, 23 March, Saturday

    Time Temperature Precipitation Wind Pressure Humidity
    00:00 +8°C° 0 mm 2 mps 756 mmHg 90%
    01:00 +8°C° 0 mm 1 mps 756 mmHg 92%
    02:00 +7°C° 0 mm 2 mps 755 mmHg 92%
    03:00 +6°C° 0 mm 2 mps 755 mmHg 93%
    04:00 +6°C° 0 mm 2 mps 755 mmHg 93%
    05:00 +6°C° 0 mm 2 mps 755 mmHg 92%
    06:00 +7°C° 0 mm 2 mps 755 mmHg 91%
    07:00 +7°C° 0 mm 2 mps 755 mmHg 87%
    08:00 +9°C° 0 mm 2 mps 754 mmHg 79%
    09:00 +12°C° 0 mm 2 mps 754 mmHg 71%
    10:00 +14°C° 0 mm 2 mps 754 mmHg 63%
    11:00 +15°C° 0 mm 2 mps 753 mmHg 57%
    12:00 +18°C° 0 mm 1 mps 753 mmHg 52%
    13:00 +19°C° 0 mm 1 mps 753 mmHg 47%
    14:00 +20°C° 0 mm 1 mps 752 mmHg 46%
    15:00 +20°C° 0 mm 1 mps 752 mmHg 45%
    16:00 +20°C° 0 mm 1 mps 752 mmHg 44%
    17:00 +19°C° 0 mm 1 mps 752 mmHg 50%
    18:00 +16°C° 0 mm 1 mps 751 mmHg 55%
    19:00 +15°C° 0 mm 1 mps 751 mmHg 61%
    20:00 +14°C° 0 mm 1 mps 752 mmHg 63%
    21:00 +14°C° 0 mm 2 mps 752 mmHg 66%
    22:00 +14°C° 0 mm 2 mps 752 mmHg 69%
    23:00 +12°C° 0 mm 3 mps 752 mmHg 76%

    Tomorrow, 24 March, Sunday

    Time Temperature Precipitation Wind Pressure Humidity
    00:00 +11°C° 0 mm 3 mps 752 mmHg 83%
    01:00 +10°C° 0 mm 4 mps 752 mmHg 89%
    02:00 +10°C° 0 mm 4 mps 752 mmHg 87%
    03:00 +8°C° 0 mm 4 mps 753 mmHg 84%
    04:00 +8°C° 0 mm 4 mps 753 mmHg 81%
    05:00 +7°C° 0 mm 4 mps 753 mmHg 81%
    06:00 +8°C° 0 mm 3 mps 753 mmHg 81%
    07:00 +7°C° 0 mm 3 mps 753 mmHg 81%
    08:00 +8°C° 0 mm 3 mps 753 mmHg 75%
    09:00 +9°C° 0 mm 2 mps 753 mmHg 69%
    10:00 +10°C° 0 mm 2 mps 753 mmHg 62%
    11:00 +12°C° 0 mm 2 mps 752 mmHg 58%
    12:00 +13°C° 0 mm 2 mps 752 mmHg 54%
    13:00 +14°C° 0 mm 1 mps 751 mmHg 50%
    14:00 +14°C° 0 mm 2 mps 750 mmHg 50%
    15:00 +14°C° 0 mm 2 mps 750 mmHg 50%
    16:00 +14°C° 0 mm 2 mps 749 mmHg 51%
    17:00 +13°C° 0 mm 2 mps 749 mmHg 53%
    18:00 +12°C° 0 mm 2 mps 749 mmHg 55%
    19:00 +10°C° 0 mm 2 mps 749 mmHg 57%
    20:00 +10°C° 0 mm 2 mps 748 mmHg 58%
    21:00 +10°C° 0 mm 1 mps 748 mmHg 59%
    22:00 +10°C° 0 mm 1 mps 748 mmHg 60%
    23:00 +10°C° 0 mm 1 mps 747 mmHg 61%

    Day after tomorrow, 25 March, Monday

    Time Temperature Precipitation Wind Pressure Humidity
    00:00 +9°C° 0 mm 1 mps 747 mmHg 62%
    01:00 +9°C° 0 mm 1 mps 747 mmHg 64%
    02:00 +8°C° 0.2 mm 1 mps 746 mmHg 67%
    03:00 +8°C° 0.2 mm 1 mps 746 mmHg 71%
    04:00 +8°C° 0.2 mm 1 mps 745 mmHg 74%
    05:00 +6°C° 0.1 mm 2 mps 745 mmHg 73%
    06:00 +5°C° 0.1 mm 3 mps 745 mmHg 72%
    07:00 +5°C° 0.1 mm 3 mps 745 mmHg 70%
    08:00 +6°C° 0 mm 4 mps 744 mmHg 63%
    09:00 +7°C° 0 mm 4 mps 744 mmHg 56%
    10:00 +8°C° 0 mm 4 mps 744 mmHg 49%
    11:00 +8°C° 0.2 mm 5 mps 743 mmHg 49%
    12:00 +8°C° 0.2 mm 5 mps 743 mmHg 48%
    13:00 +9°C° 0.2 mm 6 mps 743 mmHg 47%
    14:00 +7°C° 0.4 mm 6 mps 743 mmHg 53%
    15:00 +5°C° 0.4 mm 7 mps 743 mmHg 58%
    16:00 +4°C° 0.4 mm 7 mps 743 mmHg 64%
    17:00 +4°C° 0 mm 6 mps 744 mmHg 66%
    18:00 +3°C° 0 mm 5 mps 745 mmHg 67%
    19:00 +3°C° 0 mm 4 mps 745 mmHg 69%
    20:00 +3°C° 0 mm 4 mps 746 mmHg 70%
    21:00 +1°C° 0 mm 5 mps 747 mmHg 71%
    22:00 +1°C° 0 mm 5 mps 747 mmHg 73%
    23:00 +1°C° 0 mm 5 mps 748 mmHg 76%

    26 March, Tuesday

    Time Temperature Precipitation Wind Pressure Humidity
    00:00 0°C° 0 mm 4 mps 749 mmHg 79%
    01:00 0°C° 0 mm 4 mps 749 mmHg 82%
    02:00 -1°C° 0 mm 4 mps 750 mmHg 85%
    03:00 -1°C° 0 mm 4 mps 750 mmHg 87%
    04:00 -1°C° 0 mm 4 mps 751 mmHg 90%
    05:00 -1°C° 0.1 mm 4 mps 751 mmHg 89%
    06:00 0°C° 0.1 mm 5 mps 752 mmHg 88%
    07:00 +1°C° 0.1 mm 5 mps 753 mmHg 87%
    08:00 +1°C° 0.1 mm 5 mps 753 mmHg 79%
    09:00 +2°C° 0.1 mm 5 mps 753 mmHg 71%
    10:00 +3°C° 0.1 mm 5 mps 754 mmHg 63%
    11:00 +5°C° 0 mm 5 mps 754 mmHg 57%
    12:00 +6°C° 0 mm 5 mps 753 mmHg 51%
    13:00 +6°C° 0 mm 5 mps 753 mmHg 45%
    14:00 +7°C° 0 mm 6 mps 753 mmHg 45%
    15:00 +7°C° 0 mm 6 mps 753 mmHg 45%
    16:00 +7°C° 0 mm 6 mps 752 mmHg 44%
    17:00 +5°C° 0 mm 6 mps 752 mmHg 50%
    18:00 +5°C° 0 mm 5 mps 753 mmHg 55%
    19:00 +4°C° 0 mm 4 mps 753 mmHg 60%
    20:00 +4°C° 0 mm 4 mps 753 mmHg 64%
    21:00 +3°C° 0 mm 4 mps 753 mmHg 68%
    22:00 +3°C° 0 mm 3 mps 754 mmHg 72%
    23:00 +3°C° 0 mm 3 mps 754 mmHg 76%

    27 March, Wednesday

    Time Temperature Precipitation Wind Pressure Humidity
    00:00 +3°C° 0 mm 4 mps 754 mmHg 80%
    01:00 +1°C° 0 mm 4 mps 754 mmHg 83%
    02:00 +2°C° 0 mm 3 mps 754 mmHg 87%
    03:00 +2°C° 0 mm 3 mps 754 mmHg 90%
    04:00 +1°C° 0 mm 3 mps 754 mmHg 94%
    05:00 +2°C° 0 mm 3 mps 754 mmHg 92%
    06:00 +2°C° 0 mm 3 mps 755 mmHg 91%
    07:00 +2°C° 0 mm 3 mps 755 mmHg 89%
    08:00 +3°C° 0 mm 3 mps 755 mmHg 86%
    09:00 +4°C° 0 mm 3 mps 755 mmHg 83%
    10:00 +4°C° 0 mm 3 mps 755 mmHg 79%
    11:00 +5°C° 0.1 mm 3 mps 755 mmHg 75%
    12:00 +7°C° 0.1 mm 3 mps 755 mmHg 71%
    13:00 +8°C° 0.1 mm 3 mps 755 mmHg 67%
    14:00 +8°C° 0.2 mm 3 mps 755 mmHg 66%
    15:00 +9°C° 0.2 mm 3 mps 755 mmHg 64%
    16:00 +9°C° 0.2 mm 3 mps 755 mmHg 63%
    17:00 +8°C° 0.1 mm 3 mps 755 mmHg 68%
    18:00 +7°C° 0.1 mm 2 mps 756 mmHg 73%
    19:00 +6°C° 0.1 mm 2 mps 756 mmHg 78%
    20:00 +6°C° 0 mm 1 mps 756 mmHg 80%
    21:00 +5°C° 0 mm 1 mps 756 mmHg 82%
    22:00 +5°C° 0 mm 1 mps 757 mmHg 84%
    23:00 +5°C° 0 mm 1 mps 757 mmHg 85%

    28 March, Thursday

    Time Temperature Precipitation Wind Pressure Humidity
    00:00 +4°C° 0 mm 1 mps 757 mmHg 86%
    01:00 +4°C° 0 mm 1 mps 757 mmHg 87%
    02:00 +4°C° 0 mm 1 mps 757 mmHg 88%
    03:00 +4°C° 0 mm 1 mps 757 mmHg 89%
    04:00 +4°C° 0 mm 1 mps 757 mmHg 89%
    05:00 +4°C° 0 mm 1 mps 758 mmHg 86%
    06:00 +5°C° 0 mm 1 mps 758 mmHg 84%
    07:00 +5°C° 0 mm 1 mps 758 mmHg 81%
    08:00 +7°C° 0 mm 1 mps 758 mmHg 76%
    09:00 +9°C° 0 mm 1 mps 758 mmHg 71%
    10:00 +10°C° 0 mm 1 mps 758 mmHg 65%
    11:00 +11°C° 0 mm 1 mps 758 mmHg 62%
    12:00 +12°C° 0 mm 1 mps 758 mmHg 59%
    13:00 +12°C° 0 mm 1 mps 758 mmHg 56%
    14:00 +12°C° 0 mm 1 mps 758 mmHg 56%
    15:00 +12°C° 0 mm 1 mps 757 mmHg 56%
    16:00 +12°C° 0 mm 2 mps 757 mmHg 56%
    17:00 +11°C° 0 mm 1 mps 757 mmHg 60%
    18:00 +11°C° 0 mm 1 mps 758 mmHg 65%
    19:00 +10°C° 0 mm 1 mps 758 mmHg 69%
    20:00 +10°C° 0 mm 1 mps 758 mmHg 69%
    21:00 +10°C° 0 mm 1 mps 758 mmHg 70%
    22:00 +9°C° 0 mm 1 mps 758 mmHg 71%
    23:00 +9°C° 0 mm 1 mps 758 mmHg 74%
    Show more